Weather History for KRKS - December, 2012

Change the Weather History Date:

Sunday, December 9, 2012

  Actual Average Record
Temperature  
Mean Temperature 8 °F 21 °F  
Max Temperature 16 °F 30 °F 53 °F (1975)
Min Temperature -1 °F 13 °F -21 °F (1972)
Degree Days  
Heating Degree Days 57 44  
Month to date heating degree days 313 383  
Since 1 July heating degree days 1889 2376  
Cooling Degree Days 0 0  
Month to date cooling degree days 0 0  
Year to date cooling degree days 541 286  
Moisture  
Dew Point 1 °F    
Average Humidity 72    
Maximum Humidity 86    
Minimum Humidity 58    
Precipitation  
Precipitation T in 0.02 in 0.50 in (1997)
Month to date precipitation 0.03 0.15  
Year to date precipitation 2.96 8.21  
Sea Level Pressure  
Sea Level Pressure 30.27 in    
Wind  
Wind Speed 7 mph (WSW)    
Max Wind Speed 26 mph    
Max Gust Speed 32 mph    
Visibility 10 miles    
Events Snow    
T = Trace of Precipitation, MM = Missing Value Source: NWS Daily Summary

Daily Weather History Graph

Daily Weather History Graph

Search for Another Location

Airport or City:

Trip Planner

Search our weather history database for the weather conditions in past years. The results will help you decide how hot, cold, wet, or windy it might be!

Date:

Astronomy

Dec. 09, 2012 Rise Set
Actual Time 7:31 AM MST 4:45 PM MST
Civil Twilight 7:00 AM MST 5:17 PM MST
Nautical Twilight 6:25 AM MST 5:52 PM MST
Astronomical Twilight 5:51 AM MST 6:25 PM MST
Moon 3:05 AM MST (12/9) 1:56 PM MST (12/9)
Length of Visible Light 10h 16m
Length of Day
9h 14m
Waning Crescent, 18% of the Moon is Illuminated
Dec 9
Waning Crescent
Dec 13
New
Dec 19
First Quarter
Dec 28
Full
Jan 4
Last Quarter

Hourly Weather History & Observations

Time (MST) Temp. Windchill Dew Point Humidity Pressure Visibility Wind Dir Wind Speed Gust Speed Precip Events Conditions
12:54 AM 10.9 °F - -2.0 °F 56% 30.18 in 10.0 mi Calm Calm - N/A   Clear
1:54 AM 9.0 °F 2.4 °F -2.0 °F 61% 30.19 in 10.0 mi NE 3.5 mph - N/A   Clear
2:54 AM 9.0 °F - -2.9 °F 59% 30.20 in 10.0 mi Calm Calm - N/A   Clear
3:54 AM 1.9 °F -10.6 °F -5.1 °F 72% 30.25 in 10.0 mi WSW 6.9 mph - N/A   Partly Cloudy
4:54 AM 8.1 °F - -2.0 °F 64% 30.23 in 10.0 mi Calm Calm - N/A   Clear
5:54 AM 3.9 °F - -2.9 °F 73% 30.29 in 10.0 mi Calm Calm - N/A   Partly Cloudy
6:08 AM 6.8 °F - -2.2 °F 67% 30.04 in 10.0 mi Calm Calm - N/A   Mostly Cloudy
6:36 AM 6.8 °F - -2.2 °F 67% 30.04 in 10.0 mi Calm Calm - N/A   Scattered Clouds
6:54 AM 3.9 °F - -2.9 °F 73% 30.31 in 10.0 mi Calm Calm - N/A   Partly Cloudy
7:52 AM 3.2 °F - -2.2 °F 78% 30.08 in 10.0 mi Calm Calm - N/A   Mostly Cloudy
7:54 AM 3.0 °F - -2.9 °F 76% 30.36 in 10.0 mi Calm Calm - N/A   Mostly Cloudy
8:21 AM 5.0 °F - -0.4 °F 78% 30.09 in 10.0 mi Calm Calm - N/A   Mostly Cloudy
8:37 AM 3.2 °F -4.2 °F -0.4 °F 85% 30.10 in 10.0 mi SE 3.5 mph - N/A   Scattered Clouds
8:45 AM 1.4 °F - -0.4 °F 92% 30.10 in 10.0 mi Calm Calm - N/A   Mostly Cloudy
8:54 AM 3.9 °F - -0.0 °F 84% 30.37 in 10.0 mi Calm Calm - N/A   Partly Cloudy
9:12 AM 3.2 °F -4.2 °F -0.4 °F 85% 30.11 in 10.0 mi South 3.5 mph - N/A   Mostly Cloudy
9:54 AM 3.9 °F -3.4 °F -2.0 °F 76% 30.41 in 10.0 mi ENE 3.5 mph - N/A   Mostly Cloudy
10:20 AM 8.6 °F - 3.2 °F 79% 30.14 in 7.0 mi Calm Calm - 0.00 in Snow Light Snow
10:51 AM 10.4 °F 4.0 °F 3.2 °F 73% 30.15 in 10.0 mi NE 3.5 mph - 0.00 in   Scattered Clouds
10:54 AM 10.9 °F - 3.9 °F 73% 30.39 in 10.0 mi Calm Calm - 0.00 in   Partly Cloudy
11:54 AM 12.0 °F 5.9 °F 6.1 °F 77% 30.38 in 10.0 mi East 3.5 mph - N/A   Clear
12:54 PM 14.0 °F - 6.1 °F 71% 30.35 in 10.0 mi Calm Calm - N/A   Clear
1:54 PM 14.0 °F - 7.0 °F 74% 30.37 in 10.0 mi Calm Calm - N/A   Clear
2:54 PM 16.0 °F 10.4 °F 6.1 °F 65% 30.34 in 10.0 mi West 3.5 mph - N/A   Clear
3:54 PM 15.1 °F 3.3 °F 3.0 °F 59% 30.38 in 10.0 mi WSW 9.2 mph - N/A   Clear
4:54 PM 10.0 °F -4.5 °F -0.0 °F 64% 30.39 in 10.0 mi West 11.5 mph - N/A   Clear
5:54 PM 8.1 °F -7.0 °F -0.9 °F 67% 30.41 in 10.0 mi WSW 11.5 mph - N/A   Clear
6:54 PM 9.0 °F -6.6 °F 1.9 °F 73% 30.39 in 10.0 mi SW 12.7 mph - N/A   Clear
7:54 PM 10.0 °F -8.1 °F 5.0 °F 80% 30.37 in 10.0 mi WSW 18.4 mph - N/A   Partly Cloudy
8:54 PM 10.0 °F -9.1 °F 5.0 °F 80% 30.37 in 10.0 mi West 20.7 mph - N/A   Clear
9:54 PM 10.9 °F -7.5 °F 5.0 °F 77% 30.35 in 10.0 mi WSW 19.6 mph - N/A   Mostly Cloudy
10:54 PM 12.0 °F -6.0 °F 5.0 °F 73% 30.33 in 10.0 mi West 19.6 mph - N/A   Overcast
11:54 PM 10.9 °F -9.2 °F 3.9 °F 73% 30.30 in 10.0 mi West 24.2 mph 32.2 mph N/A   Mostly Cloudy